Gillette, WY

10:23 AM MDT on October 22, 2017 (GMT -0600)
Gillette-Campbell County

Weather History for KGCC - April, 2013

Change the Weather History Date:

Monday, April 8, 2013

  Actual Average Record
Temperature  
Mean Temperature 26 °F 40 °F  
Max Temperature 38 °F 53 °F 73 °F (1930)
Min Temperature 13 °F 27 °F 0 °F (1997)
Degree Days  
Heating Degree Days 39 25  
Month to date heating degree days 173 205  
Since 1 July heating degree days 6260 6552  
Cooling Degree Days 0 0  
Month to date cooling degree days 0 0  
Year to date cooling degree days 0 0  
Moisture  
Dew Point 23 °F    
Average Humidity 92    
Maximum Humidity 100    
Minimum Humidity 84    
Precipitation  
Precipitation 0.27 in 0.05 in 0.91 in (1969)
Month to date precipitation 0.38 0.24  
Year to date precipitation 1.79 1.98  
Sea Level Pressure  
Sea Level Pressure 29.90 in    
Wind  
Wind Speed 18 mph (North)    
Max Wind Speed 28 mph    
Max Gust Speed 33 mph    
Visibility 4 miles    
Events Fog , Snow    
T = Trace of Precipitation, MM = Missing Value Source: NWS Daily Summary

Daily Weather History Graph

Daily Weather History Graph

Search for Another Location

Airport or City:

Trip Planner

Search our weather history database for the weather conditions in past years. The results will help you decide how hot, cold, wet, or windy it might be!

Date:

Astronomy

Apr. 08, 2013 Rise Set
Actual Time 6:30 AM MDT 7:38 PM MDT
Civil Twilight 6:00 AM MDT 8:08 PM MDT
Nautical Twilight 5:24 AM MDT 8:44 PM MDT
Astronomical Twilight 4:47 AM MDT 9:21 PM MDT
Moon 5:24 AM MDT (4/8) 6:13 PM MDT (4/8)
Length of Visible Light 14h 07m
Length of Day
13h 08m
Waning Crescent, 3% of the Moon is Illuminated
Apr 8
Waning Crescent
Apr 10
New
Apr 18
First Quarter
Apr 25
Full
May 2
Last Quarter

Hourly Weather History & Observations

Time (MDT) Temp. Windchill Dew Point Humidity Pressure Visibility Wind Dir Wind Speed Gust Speed Precip Events Conditions
12:53 AM 37.9 °F - 36.0 °F 93% 29.55 in 10.0 mi Calm Calm - N/A   Clear
1:53 AM 37.0 °F - 36.0 °F 96% 29.55 in 10.0 mi Calm Calm - N/A   Mostly Cloudy
2:53 AM 33.1 °F - 32.0 °F 96% 29.57 in 10.0 mi Calm Calm - N/A   Clear
3:53 AM 34.0 °F 26.6 °F 33.1 °F 96% 29.58 in 10.0 mi WNW 9.2 mph - N/A   Mostly Cloudy
4:48 AM 35.6 °F 31.7 °F 35.6 °F 100% 29.62 in 10.0 mi NNW 4.6 mph - N/A   Mostly Cloudy
4:53 AM 36.0 °F 31.1 °F 36.0 °F 100% 29.59 in 10.0 mi NNW 5.8 mph - N/A   Mostly Cloudy
5:00 AM 35.6 °F 30.7 °F 35.6 °F 100% 29.62 in 10.0 mi NNW 5.8 mph - N/A   Overcast
5:09 AM 37.4 °F 30.3 °F 37.4 °F 100% 29.62 in 10.0 mi NNW 10.4 mph - N/A   Overcast
5:16 AM 37.4 °F 30.8 °F 37.4 °F 100% 29.62 in 10.0 mi NNW 9.2 mph - N/A   Overcast
5:23 AM 37.4 °F 29.8 °F 37.4 °F 100% 29.62 in 10.0 mi NNW 11.5 mph - N/A   Overcast
5:41 AM 37.4 °F 29.3 °F 37.4 °F 100% 29.64 in 10.0 mi NNW 12.7 mph - N/A   Overcast
5:53 AM 37.9 °F 28.9 °F 37.9 °F 100% 29.62 in 10.0 mi NNW 16.1 mph 20.7 mph N/A   Overcast
6:02 AM 37.4 °F 28.2 °F 37.4 °F 100% 29.65 in 9.0 mi NNW 16.1 mph - N/A   Overcast
6:09 AM 37.4 °F 27.2 °F 37.4 °F 100% 29.67 in 1.8 mi NNW 19.6 mph 25.3 mph N/A   Overcast
6:36 AM 33.8 °F 21.6 °F 33.8 °F 100% 29.70 in 2.5 mi North 23.0 mph 28.8 mph 0.01 in Snow Light Snow
6:46 AM 33.8 °F 21.3 °F 33.8 °F 100% 29.70 in 3.0 mi NNW 24.2 mph 29.9 mph 0.01 in   Overcast
6:53 AM 32.0 °F 20.5 °F 30.9 °F 96% 29.73 in 4.0 mi NNW 18.4 mph 29.9 mph 0.01 in   Overcast
7:45 AM 28.4 °F 15.8 °F 28.4 °F 100% 29.78 in 3.0 mi NNW 18.4 mph - 0.01 in   Overcast
7:53 AM 28.9 °F 16.1 °F 28.0 °F 96% 29.83 in 4.0 mi NW 19.6 mph - 0.01 in   Overcast
8:18 AM 26.6 °F 12.7 °F 26.6 °F 100% 29.81 in 2.0 mi NW 20.7 mph - 0.00 in Snow Light Snow
8:29 AM 26.6 °F 12.0 °F 24.8 °F 93% 29.81 in 8.0 mi NNW 23.0 mph 31.1 mph 0.00 in   Overcast
8:53 AM 26.1 °F 12.0 °F 25.0 °F 96% 29.87 in 10.0 mi NNW 20.7 mph - 0.00 in   Overcast
9:06 AM 26.6 °F 12.0 °F 24.8 °F 93% 29.81 in 10.0 mi NNW 23.0 mph - N/A   Overcast
9:17 AM 26.6 °F 12.0 °F 24.8 °F 93% 29.81 in 10.0 mi NNW 23.0 mph 29.9 mph N/A   Overcast
9:53 AM 25.0 °F 9.9 °F 24.1 °F 96% 29.89 in 10.0 mi NNW 23.0 mph - N/A   Overcast
10:53 AM 23.0 °F 7.2 °F 21.9 °F 96% 29.94 in 10.0 mi NNW 23.0 mph 28.8 mph N/A   Overcast
11:53 AM 23.0 °F 7.6 °F 21.9 °F 96% 29.96 in 8.0 mi NNW 21.9 mph 28.8 mph N/A   Overcast
12:53 PM 23.0 °F 8.3 °F 21.0 °F 92% 29.98 in 2.0 mi North 19.6 mph - 0.00 in Snow Light Snow
1:14 PM 23.0 °F 8.0 °F 21.2 °F 93% 29.91 in 3.0 mi North 20.7 mph 27.6 mph 0.01 in Snow Light Snow
1:50 PM 21.2 °F 5.2 °F 19.4 °F 93% 29.92 in 2.0 mi NNE 21.9 mph - 0.01 in Snow Light Snow
1:53 PM 21.9 °F 6.9 °F 19.9 °F 92% 30.01 in 1.8 mi North 19.6 mph - 0.01 in Snow Light Snow
2:07 PM 21.2 °F 4.5 °F 19.4 °F 93% 29.91 in 0.8 mi North 24.2 mph 28.8 mph 0.01 in Snow Light Snow
2:16 PM 23.0 °F 7.2 °F 21.2 °F 93% 29.91 in 0.5 mi North 23.0 mph - 0.01 in Fog , Snow Light Snow
2:43 PM 21.2 °F 4.5 °F 19.4 °F 93% 29.91 in 0.2 mi North 24.2 mph 31.1 mph 0.03 in Fog , Snow Light Snow
2:53 PM 21.9 °F 6.2 °F 19.9 °F 92% 30.02 in 0.5 mi North 21.9 mph 28.8 mph 0.03 in Fog , Snow Light Snow
3:03 PM 21.2 °F 5.2 °F 19.4 °F 93% 29.92 in 0.8 mi North 21.9 mph 28.8 mph 0.01 in Snow Light Snow
3:16 PM 21.2 °F 6.0 °F 19.4 °F 93% 29.92 in 1.0 mi North 19.6 mph - 0.01 in Snow Light Snow
3:22 PM 21.2 °F 6.0 °F 19.4 °F 93% 29.92 in 0.5 mi North 19.6 mph - 0.01 in Fog , Snow Light Snow
3:34 PM 21.2 °F 4.2 °F 19.4 °F 93% 29.92 in 0.5 mi North 25.3 mph 29.9 mph 0.02 in Fog , Snow Light Snow
3:49 PM 21.2 °F 4.9 °F 19.4 °F 93% 29.93 in 0.5 mi North 23.0 mph 27.6 mph 0.03 in Fog , Snow Light Snow
3:53 PM 21.0 °F 4.6 °F 18.0 °F 88% 30.04 in 0.5 mi North 23.0 mph - 0.03 in Fog , Snow Light Snow
4:32 PM 19.4 °F 3.6 °F 17.6 °F 93% 29.96 in 0.2 mi North 19.6 mph 27.6 mph 0.01 in Fog , Snow Light Snow
4:53 PM 19.9 °F 3.2 °F 17.1 °F 89% 30.06 in 0.5 mi North 23.0 mph - 0.02 in Fog , Snow Light Snow
5:04 PM 19.4 °F 1.8 °F 15.8 °F 86% 29.96 in 0.8 mi North 25.3 mph 32.2 mph 0.00 in Snow Light Snow
5:53 PM 19.0 °F 2.0 °F 16.0 °F 88% 30.07 in 0.5 mi North 23.0 mph - 0.01 in Fog , Snow Snow
6:21 PM 17.6 °F 0.1 °F 15.8 °F 93% 30.01 in 0.2 mi North 23.0 mph - 0.01 in Fog , Snow Snow
6:46 PM 17.6 °F 2.2 °F 15.8 °F 93% 30.03 in 0.2 mi North 17.3 mph - 0.02 in Fog , Snow Light Snow
6:53 PM 17.1 °F 0.6 °F 15.1 °F 92% 30.15 in 0.2 mi North 19.6 mph 25.3 mph 0.02 in Fog , Snow Snow
7:22 PM 15.8 °F -1.1 °F 14.0 °F 93% 30.06 in 0.5 mi North 19.6 mph - 0.01 in Fog , Snow Light Snow
7:41 PM 15.8 °F 0.3 °F 15.8 °F 100% 30.06 in 0.8 mi North 16.1 mph - 0.02 in Snow Light Snow
7:53 PM 16.0 °F -0.9 °F 15.1 °F 96% 30.19 in 0.8 mi North 19.6 mph - 0.03 in Snow Light Snow
8:02 PM 15.8 °F -2.3 °F 14.0 °F 93% 30.06 in 1.0 mi North 23.0 mph 33.4 mph 0.00 in Snow Light Snow
8:53 PM 16.0 °F -2.8 °F 12.9 °F 88% 30.23 in 1.0 mi North 25.3 mph 31.1 mph 0.01 in Snow Light Snow
9:32 PM 15.8 °F -1.5 °F 12.2 °F 86% 30.10 in 0.5 mi North 20.7 mph 29.9 mph 0.00 in Fog , Snow Snow
9:45 PM 15.8 °F -1.5 °F 12.2 °F 86% 30.12 in 0.5 mi North 20.7 mph - 0.01 in Fog , Snow Snow
9:53 PM 15.1 °F -1.6 °F 12.9 °F 91% 30.28 in 0.5 mi North 18.4 mph - 0.02 in Fog , Snow Snow
10:01 PM 15.8 °F -1.1 °F 12.2 °F 86% 30.12 in 0.8 mi North 19.6 mph - 0.00 in Snow Light Snow
10:31 PM 15.8 °F -1.9 °F 12.2 °F 86% 30.10 in 0.5 mi North 21.9 mph 26.5 mph 0.02 in Fog , Snow Snow
10:43 PM 15.8 °F -0.2 °F 12.2 °F 86% 30.12 in 0.5 mi North 17.3 mph - 0.02 in Fog , Snow Snow
10:53 PM 15.1 °F -3.7 °F 12.9 °F 91% 30.27 in 0.5 mi North 24.2 mph 28.8 mph 0.03 in Fog Light Freezing Fog
11:37 PM 14.0 °F -3.4 °F 12.2 °F 93% 30.11 in 0.8 mi North 19.6 mph - 0.02 in Snow Light Snow
11:53 PM 14.0 °F -4.7 °F 12.0 °F 92% 30.26 in 0.8 mi North 23.0 mph - 0.03 in   Mist